Location: ?????
(37.5810°N, 71.5156°E)
Time: 06:39:08
(UTC+00:00)

Daily predictions for brighter satellites

Satellite Brightness Start Highest point End
(mag) Time Altitude Azimuth Time Altitude Azimuth Time Altitude Azimuth
Cosmos 1805 Rocket 4.3 12:22:28 10° NNE 12:26:30 33° ENE 12:30:30 10° SE
OE (NEXTSAT) 4.4 12:23:35 10° SW 12:27:00 67° SSE 12:30:26 10° ENE
CZ-3B R/B 3.6 12:24:17 10° S 12:27:36 16° SE 12:29:34 10° ESE
DELTA 2 R/B (1) 4.4 12:23:12 10° W 12:28:35 53° SSW 12:33:58 10° SE
NOAA 12 4.2 12:24:38 10° SSE 12:29:50 57° ENE 12:35:03 10° N
CRYOSAT 2 4.5 12:25:31 10° NNE 12:30:20 55° E 12:35:06 10° S
ISS -2.5 12:27:46 10° W 12:30:53 34° NNW 12:34:00 10° NE
Cosmos 2219 Rocket 3.8 12:26:30 10° WSW 12:31:33 33° WNW 12:36:36 10° N
CZ-4B R/B 3.1 12:30:31 10° SSE 12:35:52 70° ENE 12:41:09 10° N
Lacrosse 5 rocket 2.5 12:35:52 10° S 12:38:42 21° ESE 12:41:09 12° ENE
Envisat 3.5 12:34:14 10° S 12:39:16 67° WSW 12:44:20 10° NNW
Cosmos 2327 Rocket 4.5 12:33:10 10° N 12:39:20 76° E 12:45:33 10° S
Cosmos 2074 Rocket 4.4 12:33:51 10° NNW 12:40:02 69° W 12:46:13 10° S
Cosmos 2237 Rocket 2.3 12:34:54 10° SSW 12:40:31 86° WNW 12:46:11 10° NNE
USA 281 4.2 12:35:49 10° ESE 12:40:51 24° NE 12:45:53 10° N
Cosmos 1862 3.3 12:37:01 10° N 12:41:03 87° ENE 12:45:03 10° S
CZ-4B R/B 1.5 12:39:33 10° NNE 12:42:31 44° E 12:45:30 10° S
NOAA 11 4.4 12:37:44 10° SE 12:42:55 49° ENE 12:48:08 10° N
FengYun 1-2 T 4.3 12:38:17 10° SSE 12:43:40 53° ENE 12:49:02 10° N
SMAP 3.0 12:40:08 10° SSE 12:44:47 84° ENE 12:49:27 10° N
Cosmos 2181 Rocket 4.5 12:41:48 10° SSE 12:47:41 39° E 12:53:33 10° NNE
CZ-4 R/B 3.3 12:50:17 11° NE 12:50:17 11° NE 12:50:46 10° NE
H-2A R/B 3.7 12:50:32 13° ENE 12:50:50 13° ENE 12:53:18 10° NE
ERS-2 2.2 12:48:01 10° NNE 12:51:38 57° ESE 12:55:14 10° S
H-2A R/B 3.3 12:48:35 10° N 12:52:31 41° WNW 12:56:31 10° SW
Meteor 1-4 Rocket 4.5 12:51:54 10° ESE 12:53:15 13° E 12:53:15 13° E
CORIOLIS 4.1 12:48:50 10° SSE 12:54:13 85° ENE 12:59:40 10° NNW
SKYMED 2 4.0 12:51:07 10° NNE 12:55:13 41° E 12:59:18 10° S
Meteor 2-12 Rocket 4.5 12:51:21 10° N 12:57:26 60° E 13:03:27 10° SSE
Cosmos 1980 4.4 12:53:08 10° SW 12:58:41 57° WNW 13:04:18 10° NNE
Cosmos 1939 Rocket 3.2 12:57:49 10° SE 13:01:23 38° ENE 13:05:00 10° N
Cosmos 1295 Rocket 4.5 12:56:20 10° N 13:02:32 89° W 13:08:46 10° S
Cosmos 1633 Rocket 3.7 12:59:41 10° NNE 13:03:36 31° ENE 13:07:28 10° SE
GENESIS II 4.5 13:01:54 10° NNW 13:05:41 44° NE 13:09:24 10° SE
MOS 1 Rocket 4.4 13:05:52 11° NE 13:10:30 31° E 13:15:13 10° SSE
X-37B 2.9 13:12:42 10° SSE 13:14:08 13° SE 13:14:08 13° SE
USA 215 3.8 13:13:09 11° NE 13:19:14 54° NW 13:25:33 10° WSW
Cosmos 2297 4.1 13:18:22 10° N 13:23:40 38° ENE 13:27:35 17° ESE
Cosmos 1943 Rocket 3.3 13:23:18 10° N 13:26:54 23° NE 13:26:54 23° NE
YAOGAN 1 3.8 13:29:53 24° NNE 13:29:53 24° NNE 13:32:03 10° N
SL-16 R/B 2.1 13:22:34 10° SSW 13:28:13 82° ESE 13:33:02 15° NNE
CZ-2C R/B 3.2 13:25:36 10° SE 13:30:34 45° ENE 13:35:19 10° N
Cosmos 1867 3.9 13:26:07 10° SW 13:31:29 63° WNW 13:35:53 16° NNE
Cosmos 2218 Rocket 3.9 13:25:51 10° N 13:31:56 63° E 13:38:01 10° SSE
Meteor 1-26 Rocket 4.3 13:26:14 10° S 13:32:08 66° E 13:38:07 10° NNE
Abrixas rocket 2.1 13:32:48 10° WNW 13:35:15 64° W 13:35:15 64° W
Cosmos 44 4.2 13:32:34 10° NNW 13:37:11 33° NE 13:37:11 33° NE
Cosmos 1933 3.8 13:33:34 10° SSW 13:37:32 62° W 13:41:33 10° N
Okean-O 2.6 13:34:27 10° SSE 13:38:45 54° ENE 13:43:05 10° N
CZ-4 R/B 4.3 13:36:05 10° SSE 13:40:13 83° E 13:44:23 10° N
Cosmos 1538 Rocket 4.3 13:37:12 10° S 13:42:13 43° ESE 13:42:42 42° E
Cosmos 1515 Rocket 3.6 13:38:18 10° S 13:42:23 51° E 13:42:23 51° E
Cosmos 1818 4.4 13:37:34 10° NW 13:42:52 52° WSW 13:48:07 10° S
COSMO-SKYMED 1 3.3 13:39:01 10° N 13:43:16 53° WNW 13:47:28 10° SSW
Cosmos 2366 rocket 3.8 13:37:03 10° N 13:43:16 75° E 13:49:23 10° SSE
USA 267 3.4 13:47:00 37° E 13:49:15 52° NE 13:55:32 10° NW
Cosmos 1689 Rocket 3.2 13:49:27 39° WNW 13:49:44 40° WNW 13:52:30 10° SSW
PSLV R/B 4.3 13:47:42 19° N 13:50:27 62° WNW 13:54:26 10° SSW
Okean O Rocket 4.4 13:47:26 10° SW 13:50:33 19° W 13:53:42 10° NW
Helios 1A Rocket 3.2 13:50:07 10° SSE 13:55:00 54° N 13:58:11 10° N
Meteor 1-20 Rocket 4.4 13:49:01 10° NNW 13:54:52 76° W 14:00:40 10° S
Cosmos 1782 2.7 13:52:19 10° S 13:56:15 84° W 13:56:15 84° W
Cosmos 2278 Rocket 4.4 13:55:58 10° NW 14:00:29 25° WSW 14:05:01 10° SSW
Cosmos 489 Rocket 4.3 13:55:42 10° SSW 14:01:53 80° ESE 14:04:35 36° NNE
Cosmos 1151 Rocket 4.4 14:01:48 10° SSW 14:05:49 37° WNW 14:09:36 11° N
FALCON 9 R/B 3.1 14:05:39 10° WSW 14:06:27 20° WSW 14:06:27 20° WSW
DMSP B5D1-3 4.5 14:13:34 58° N 14:14:36 81° WNW 14:19:44 10° SSW
ATLAS CENTAUR R/B 3.8 13:58:32 10° NW 14:17:18 69° NE 14:19:35 52° E
Lacrosse 5 rocket 2.9 14:14:21 10° WSW 14:16:49 28° WNW 14:16:49 28° WNW
Cosmos 2285 Rocket 4.2 14:16:32 10° NNW 14:22:54 72° WSW 14:29:11 10° S
CZ-4 R/B 3.8 14:26:19 16° NNW 14:26:19 16° NNW 14:27:12 10° NNW
USA 281 3.5 14:18:18 10° SSE 14:24:48 64° WSW 14:31:20 10° NNW
Nadezhda 3 Rocket 3.8 14:18:56 10° S 14:25:16 82° E 14:25:25 81° ENE
H-2A R/B 2.8 14:31:11 46° NNW 14:31:11 46° NNW 14:34:53 10° NNW
Cosmos 2369 Rocket 4.2 14:37:14 10° NNW 14:38:31 17° NNW 14:38:31 17° NNW
Cosmos 1943 Rocket 4.1 15:06:24 10° NW 15:08:29 22° NW 15:08:29 22° NW
Cosmos 2263 Rocket 4.2 22:53:24 10° SSE 22:57:53 25° ESE 23:02:24 10° NE
ADEOS Rocket 4.4 23:16:52 10° S 23:19:10 25° S 23:19:10 25° S
Cosmos 1745 Rocket 4.1 23:22:19 10° S 23:28:30 73° E 23:34:49 10° N
FENGYUN 3A 4.3 23:23:25 10° NNE 23:28:43 54° E 23:33:59 10° S
Atlas Centaur 2 4.3 23:32:25 16° S 23:34:32 19° SSE 23:38:13 10° ESE
Lacrosse 5 3.8 23:34:57 10° S 23:39:09 27° ESE 23:43:22 10° ENE
NOSS 3-4 (A) 4.0 23:37:52 11° S 23:43:22 52° ESE 23:49:15 10° NE
NOSS 3-4 (C) 4.1 23:37:52 10° S 23:43:30 51° ESE 23:49:22 10° NE
Cosmos 2227 4.5 23:38:31 12° S 23:43:39 65° ESE 23:49:13 10° NNE
Delta 2 Rocket 4.0 23:47:37 58° SSE 23:47:37 58° SSE 23:51:31 10° ESE
GPS 2-04 Rocket1 4.5 23:47:38 25° SSE 23:47:38 25° SSE 23:50:29 10° E
ALOS 2.9 23:43:21 10° NNE 23:52:04 14° S 23:52:43 10° S
Cosmos 1606 3.8 23:49:04 41° ENE 23:49:17 42° E 23:52:53 10° SSE
ADEOS 3.6 23:44:08 10° NNE 23:49:22 75° ESE 23:54:35 10° S
SL-4 R/B 4.1 23:52:56 17° NNE 23:52:56 17° NNE 23:54:00 10° NE
